• Em Portugal
  • Lista de países
  • Para 7 dias
  • Temperatura da água
  • Mapas de satélite
  • Mapa do tempo
  • Widgets de tempo
  • user-avatar
    Iniciar Sessão

    Previsão horária em Bejrut

    Hoje, 23 Maio, Quarta-feira

    Tempo Temperatura Precipitação Vento Pressão Humidade
    00:00 +29°C° 0 mm 2 m/s 755 mmHg 35%
    01:00 +29°C° 0 mm 2 m/s 755 mmHg 38%
    02:00 +28°C° 0 mm 3 m/s 755 mmHg 40%
    03:00 +28°C° 0 mm 2 m/s 755 mmHg 43%
    04:00 +27°C° 0 mm 2 m/s 755 mmHg 46%
    05:00 +27°C° 0 mm 2 m/s 755 mmHg 50%
    06:00 +29°C° 0 mm 2 m/s 755 mmHg 43%
    07:00 +30°C° 0 mm 3 m/s 755 mmHg 36%
    08:00 +33°C° 0 mm 3 m/s 755 mmHg 28%
    09:00 +34°C° 0 mm 4 m/s 755 mmHg 28%
    10:00 +34°C° 0 mm 4 m/s 755 mmHg 27%
    11:00 +35°C° 0 mm 5 m/s 755 mmHg 27%
    12:00 +35°C° 0 mm 5 m/s 755 mmHg 29%
    13:00 +34°C° 0 mm 5 m/s 755 mmHg 32%
    14:00 +34°C° 0 mm 5 m/s 755 mmHg 35%
    15:00 +33°C° 0 mm 4 m/s 755 mmHg 39%
    16:00 +32°C° 0 mm 4 m/s 755 mmHg 42%
    17:00 +30°C° 0 mm 3 m/s 754 mmHg 46%
    18:00 +29°C° 0 mm 3 m/s 755 mmHg 55%
    19:00 +28°C° 0 mm 3 m/s 755 mmHg 64%
    20:00 +26°C° 0 mm 2 m/s 755 mmHg 72%
    21:00 +26°C° 0 mm 2 m/s 755 mmHg 73%
    22:00 +25°C° 0 mm 2 m/s 755 mmHg 73%
    23:00 +25°C° 0 mm 2 m/s 755 mmHg 73%

    Amanhã, 24 Maio, Quinta-feira

    Tempo Temperatura Precipitação Vento Pressão Humidade
    00:00 +25°C° 0 mm 2 m/s 755 mmHg 69%
    01:00 +25°C° 0 mm 2 m/s 755 mmHg 65%
    02:00 +24°C° 0 mm 2 m/s 755 mmHg 61%
    03:00 +24°C° 0 mm 3 m/s 755 mmHg 60%
    04:00 +24°C° 0 mm 3 m/s 755 mmHg 59%
    05:00 +24°C° 0 mm 3 m/s 754 mmHg 57%
    06:00 +26°C° 0 mm 3 m/s 755 mmHg 52%
    07:00 +28°C° 0 mm 4 m/s 755 mmHg 46%
    08:00 +30°C° 0 mm 4 m/s 755 mmHg 40%
    09:00 +32°C° 0 mm 4 m/s 755 mmHg 39%
    10:00 +33°C° 0 mm 4 m/s 755 mmHg 39%
    11:00 +34°C° 0 mm 5 m/s 754 mmHg 38%
    12:00 +34°C° 0 mm 5 m/s 754 mmHg 40%
    13:00 +34°C° 0 mm 5 m/s 754 mmHg 42%
    14:00 +34°C° 0 mm 4 m/s 753 mmHg 44%
    15:00 +33°C° 0 mm 4 m/s 753 mmHg 45%
    16:00 +33°C° 0 mm 4 m/s 753 mmHg 47%
    17:00 +32°C° 0 mm 4 m/s 752 mmHg 48%
    18:00 +30°C° 0 mm 3 m/s 753 mmHg 55%
    19:00 +28°C° 0 mm 3 m/s 753 mmHg 62%
    20:00 +27°C° 0 mm 3 m/s 753 mmHg 68%
    21:00 +27°C° 0 mm 3 m/s 753 mmHg 66%
    22:00 +26°C° 0 mm 3 m/s 753 mmHg 64%
    23:00 +26°C° 0 mm 3 m/s 753 mmHg 62%

    Depois de amanhã, 25 Maio, Sexta-feira

    Tempo Temperatura Precipitação Vento Pressão Humidade
    00:00 +26°C° 0 mm 3 m/s 753 mmHg 58%
    01:00 +26°C° 0 mm 3 m/s 752 mmHg 53%
    02:00 +25°C° 0 mm 3 m/s 752 mmHg 49%
    03:00 +25°C° 0 mm 3 m/s 752 mmHg 48%
    04:00 +25°C° 0 mm 4 m/s 752 mmHg 48%
    05:00 +25°C° 0 mm 4 m/s 752 mmHg 47%
    06:00 +27°C° 0 mm 4 m/s 752 mmHg 44%
    07:00 +30°C° 0 mm 4 m/s 752 mmHg 40%
    08:00 +33°C° 0 mm 5 m/s 752 mmHg 37%
    09:00 +33°C° 0 mm 5 m/s 752 mmHg 38%
    10:00 +34°C° 0 mm 5 m/s 752 mmHg 39%
    11:00 +34°C° 0 mm 5 m/s 752 mmHg 40%
    12:00 +34°C° 0 mm 5 m/s 752 mmHg 39%
    13:00 +34°C° 0 mm 5 m/s 752 mmHg 38%
    14:00 +34°C° 0 mm 5 m/s 752 mmHg 36%
    15:00 +34°C° 0 mm 4 m/s 752 mmHg 38%
    16:00 +33°C° 0 mm 4 m/s 752 mmHg 39%
    17:00 +32°C° 0 mm 4 m/s 752 mmHg 41%
    18:00 +30°C° 0 mm 3 m/s 752 mmHg 47%
    19:00 +29°C° 0 mm 2 m/s 752 mmHg 53%
    20:00 +27°C° 0 mm 2 m/s 752 mmHg 59%
    21:00 +27°C° 0 mm 2 m/s 752 mmHg 56%
    22:00 +27°C° 0 mm 2 m/s 752 mmHg 54%
    23:00 +27°C° 0 mm 2 m/s 752 mmHg 51%

    26 Maio, Sábado

    Tempo Temperatura Precipitação Vento Pressão Humidade
    00:00 +26°C° 0 mm 2 m/s 752 mmHg 52%
    01:00 +26°C° 0 mm 2 m/s 752 mmHg 53%
    02:00 +26°C° 0 mm 2 m/s 752 mmHg 54%
    03:00 +25°C° 0 mm 2 m/s 752 mmHg 58%
    04:00 +25°C° 0 mm 2 m/s 752 mmHg 63%
    05:00 +25°C° 0 mm 1 m/s 752 mmHg 67%
    06:00 +27°C° 0 mm 2 m/s 752 mmHg 59%
    07:00 +29°C° 0 mm 2 m/s 752 mmHg 52%
    08:00 +31°C° 0 mm 2 m/s 753 mmHg 44%
    09:00 +33°C° 0 mm 3 m/s 753 mmHg 42%
    10:00 +34°C° 0 mm 3 m/s 753 mmHg 40%
    11:00 +35°C° 0 mm 4 m/s 753 mmHg 38%
    12:00 +35°C° 0,1 mm 4 m/s 752 mmHg 38%
    13:00 +35°C° 0,1 mm 4 m/s 752 mmHg 39%
    14:00 +35°C° 0,1 mm 4 m/s 752 mmHg 39%
    15:00 +35°C° 0 mm 4 m/s 752 mmHg 41%
    16:00 +34°C° 0 mm 4 m/s 752 mmHg 43%
    17:00 +33°C° 0 mm 3 m/s 752 mmHg 45%
    18:00 +31°C° 0 mm 3 m/s 752 mmHg 51%
    19:00 +30°C° 0 mm 2 m/s 752 mmHg 57%
    20:00 +28°C° 0 mm 2 m/s 753 mmHg 63%
    21:00 +28°C° 0 mm 2 m/s 753 mmHg 64%
    22:00 +28°C° 0 mm 2 m/s 753 mmHg 64%
    23:00 +27°C° 0 mm 2 m/s 753 mmHg 64%

    27 Maio, Domingo

    Tempo Temperatura Precipitação Vento Pressão Humidade
    00:00 +27°C° 0 mm 2 m/s 753 mmHg 62%
    01:00 +27°C° 0 mm 2 m/s 753 mmHg 59%
    02:00 +27°C° 0 mm 2 m/s 753 mmHg 57%
    03:00 +27°C° 0 mm 2 m/s 753 mmHg 56%
    04:00 +27°C° 0 mm 2 m/s 753 mmHg 55%
    05:00 +27°C° 0 mm 2 m/s 753 mmHg 55%
    06:00 +29°C° 0 mm 3 m/s 753 mmHg 48%
    07:00 +31°C° 0 mm 3 m/s 754 mmHg 41%
    08:00 +34°C° 0 mm 3 m/s 754 mmHg 34%
    09:00 +35°C° 0 mm 4 m/s 754 mmHg 32%
    10:00 +36°C° 0 mm 4 m/s 753 mmHg 30%
    11:00 +39°C° 0 mm 5 m/s 753 mmHg 28%
    12:00 +37°C° 0 mm 5 m/s 753 mmHg 28%
    13:00 +37°C° 0 mm 5 m/s 752 mmHg 29%
    14:00 +37°C° 0 mm 5 m/s 752 mmHg 29%
    15:00 +36°C° 0 mm 5 m/s 752 mmHg 33%
    16:00 +35°C° 0 mm 4 m/s 752 mmHg 36%
    17:00 +35°C° 0 mm 3 m/s 752 mmHg 40%
    18:00 +34°C° 0 mm 3 m/s 753 mmHg 45%
    19:00 +33°C° 0 mm 3 m/s 753 mmHg 50%
    20:00 +30°C° 0 mm 2 m/s 753 mmHg 55%
    21:00 +31°C° 0 mm 3 m/s 753 mmHg 52%
    22:00 +31°C° 0 mm 3 m/s 753 mmHg 48%
    23:00 +31°C° 0 mm 3 m/s 753 mmHg 45%

    28 Maio, Segunda-feira

    Tempo Temperatura Precipitação Vento Pressão Humidade
    00:00 +30°C° 0 mm 3 m/s 752 mmHg 47%
    01:00 +30°C° 0 mm 3 m/s 752 mmHg 48%
    02:00 +29°C° 0 mm 2 m/s 752 mmHg 50%
    03:00 +29°C° 0,1 mm 2 m/s 752 mmHg 51%
    04:00 +28°C° 0,1 mm 2 m/s 752 mmHg 52%
    05:00 +28°C° 0,1 mm 2 m/s 752 mmHg 53%
    06:00 +30°C° 0,1 mm 2 m/s 752 mmHg 47%
    07:00 +32°C° 0,1 mm 2 m/s 752 mmHg 42%
    08:00 +35°C° 0,1 mm 2 m/s 752 mmHg 36%
    09:00 +36°C° 0 mm 2 m/s 752 mmHg 34%
    10:00 +37°C° 0 mm 2 m/s 752 mmHg 33%
    11:00 +38°C° 0 mm 3 m/s 751 mmHg 31%
    12:00 +38°C° 0 mm 3 m/s 751 mmHg 32%
    13:00 +38°C° 0 mm 3 m/s 751 mmHg 32%
    14:00 +38°C° 0 mm 3 m/s 750 mmHg 33%
    15:00 +37°C° 0 mm 2 m/s 750 mmHg 35%
    16:00 +37°C° 0 mm 2 m/s 750 mmHg 37%
    17:00 +36°C° 0 mm 2 m/s 750 mmHg 39%
    18:00 +35°C° 0,2 mm 2 m/s 750 mmHg 45%
    19:00 +34°C° 0,2 mm 2 m/s 750 mmHg 50%
    20:00 +32°C° 0,2 mm 2 m/s 750 mmHg 55%
    21:00 +31°C° 0 mm 2 m/s 750 mmHg 55%
    22:00 +31°C° 0 mm 2 m/s 750 mmHg 56%
    23:00 +31°C° 0 mm 3 m/s 750 mmHg 56%
    Mostrar mais